Home > Time Zones > World Clock > Weather > U.S.A. > Hilo > Past weeks

Flag for U.S.A. Weather past 2 weeks in Hilo, Hawaii, U.S.A.

Now
86 °F

Sunny.


Feels Like: 90 °F
Forecast: 71 / 84 °F
Wind: 9 mph from Northeast

Location: Hilo International Airport

Current Time: Sep 18, 2014 at 10:49:34 AM

Latest Report: Sep 18, 2014 at 9:53 AM


Visibility: 10 mi

Pressure: 29.96 "Hg

Humidity: 57%

Dew point: 69 °F

Location of HiloLocation

Historic Weather in Hilo — Graph

°F

Hilo temperature yesterday

Maximum temperature yesterday: 88 °F (at 11:53 AM)
Minimum temperature yesterday: 71 °F (at 1:53 AM)
Average temperature yesterday: 79 °F

Past Weeks' High & Low Weather Summary

 TemperatureHumidityPressure
High88 °F (Sep 7, 11:53 AM)94% (Sep 8, 12:53 AM)30.04 "Hg (Sep 8, 12:53 AM)
Low67 °F (Sep 4, 5:53 AM)49% (Sep 6, 11:53 AM)29.87 "Hg (Sep 14, 3:53 PM)
Average78 °F72%29.96 "Hg
* Reported Sep 3 8:53 AM — Sep 18 8:53 AM, Hilo, Weather by CustomWeather, © 2014

Note: Actual official high and low records may vary slightly from our data, if they occured in-between our weather recording intervals... More about our weather records

Advertising

Hilo weather history for previous 24 hours

 ConditionsComfort  
Time TempWeatherWind HumidityBarometerVisibility
8:53 AM
Sep 18
85 °FPassing clouds.No wind55%29.96 "Hg10 mi
7:53 AM79 °FPassing clouds.5 mph58%29.95 "Hg10 mi
6:53 AM72 °FPassing clouds.7 mph66%29.94 "Hg10 mi
5:53 AM70 °FPassing clouds.7 mph71%29.92 "Hg10 mi
4:53 AM71 °FClear.7 mph71%29.91 "Hg10 mi
3:53 AM70 °FClear.6 mph73%29.90 "Hg10 mi
2:53 AM71 °FClear.7 mph71%29.91 "Hg10 mi
1:53 AM71 °FClear.7 mph73%29.92 "Hg10 mi
12:53 AM72 °FClear.6 mph73%29.95 "Hg10 mi
11:53 PM
Sep 17
73 °FClear.6 mph74%29.96 "Hg10 mi
10:53 PM74 °FClear.7 mph76%29.97 "Hg10 mi
9:53 PM75 °FClear.5 mph82%29.98 "Hg10 mi
8:53 PM77 °FClear.3 mph82%29.97 "Hg10 mi
7:53 PM79 °FPassing clouds.6 mph77%29.96 "Hg10 mi
6:53 PM80 °FClear.No wind71%29.94 "Hg10 mi
5:53 PM81 °FScattered clouds.5 mph72%29.92 "Hg10 mi
4:53 PM83 °FOvercast.8 mph68%29.91 "Hg10 mi
3:53 PM86 °FScattered clouds.9 mph61%29.90 "Hg10 mi
2:53 PM87 °FScattered clouds.10 mph57%29.90 "Hg10 mi
1:53 PM86 °FScattered clouds.9 mph61%29.91 "Hg10 mi
12:53 PM87 °FPassing clouds.10 mph57%29.92 "Hg10 mi
11:53 AM88 °FPassing clouds.9 mph54%29.95 "Hg10 mi
10:53 AM87 °FPassing clouds.7 mph59%29.97 "Hg10 mi
Weather by CustomWeather, © 2014

See weather overviewHow to use our weather pages